Danbury, CT

2:22 PM EST on February 22, 2018 (GMT -0500)
Danbury Municipal

Weather History for KDXR - January, 2014

Change the Weather History Date:

Thursday, January 2, 2014

  Actual Average Record
Temperature  
Mean Temperature 19 °F -  
Max Temperature 26 °F 37 °F 56 °F (1979)
Min Temperature 12 °F 21 °F -5 °F (1968)
Degree Days  
Heating Degree Days 46    
Moisture  
Dew Point 13 °F    
Average Humidity 76    
Maximum Humidity 80    
Minimum Humidity 69    
Precipitation  
Precipitation 0.06 in - - ()
Sea Level Pressure  
Sea Level Pressure 30.05 in    
Wind  
Wind Speed 9 mph (NE)    
Max Wind Speed 16 mph    
Max Gust Speed 24 mph    
Visibility 4 miles    
Events Snow    
Averages and records for this station are not official NWS values.
T = Trace of Precipitation, MM = Missing Value Source: NWS Daily Summary

Daily Weather History Graph

Daily Weather History Graph

Search for Another Location

Airport or City:

Trip Planner

Search our weather history database for the weather conditions in past years. The results will help you decide how hot, cold, wet, or windy it might be!

Date:

Astronomy

Jan. 02, 2014 Rise Set
Actual Time 7:20 AM EST 4:36 PM EST
Civil Twilight 6:48 AM EST 5:07 PM EST
Nautical Twilight 6:14 AM EST 5:41 PM EST
Astronomical Twilight 5:40 AM EST 6:15 PM EST
Moon 7:58 AM EST (1/2) 6:31 PM EST (1/2)
Length of Visible Light 10h 18m
Length of Day
9h 16m
New Moon, 2% of the Moon is Illuminated
Jan 2
New Moon
Jan 7
First Quarter
Jan 15
Full
Jan 24
Last Quarter
Jan 30
New

Hourly Weather History & Observations

Time (EST) Temp. Windchill Dew Point Humidity Pressure Visibility Wind Dir Wind Speed Gust Speed Precip Events Conditions
12:39 AM 26.6 °F 20.0 °F 17.6 °F 69% 30.26 in 5.0 mi ENE 5.8 mph - 0.00 in Snow Light Snow
12:53 AM 25.0 °F 18.1 °F 17.1 °F 72% 30.27 in 5.0 mi ENE 5.8 mph - 0.00 in Snow Light Snow
1:53 AM 25.0 °F 18.1 °F 18.0 °F 75% 30.26 in 10.0 mi ENE 5.8 mph - 0.00 in   Overcast
2:02 AM 24.8 °F 16.9 °F 17.6 °F 74% 30.24 in 10.0 mi ENE 6.9 mph - N/A   Overcast
2:51 AM 23.0 °F 13.9 °F 17.6 °F 80% 30.24 in 4.0 mi NE 8.1 mph - 0.00 in Snow Light Snow
2:53 AM 23.0 °F 13.1 °F 16.0 °F 74% 30.25 in 4.0 mi ENE 9.2 mph - 0.00 in Snow Light Snow
3:48 AM 23.0 °F 12.4 °F 15.8 °F 74% 30.20 in 2.5 mi NE 10.4 mph 18.4 mph 0.00 in Snow Light Snow
3:53 AM 23.0 °F 13.1 °F 16.0 °F 74% 30.22 in 3.0 mi ENE 9.2 mph 18.4 mph 0.00 in Snow Light Snow
4:25 AM 23.0 °F 13.9 °F 15.8 °F 74% 30.20 in 8.0 mi NE 8.1 mph - 0.00 in   Overcast
4:53 AM 21.9 °F 12.5 °F 15.1 °F 75% 30.20 in 8.0 mi ENE 8.1 mph - 0.00 in   Overcast
5:03 AM 21.2 °F 10.1 °F 15.8 °F 80% 30.17 in 6.0 mi NE 10.4 mph - 0.00 in Snow Light Snow
5:10 AM 21.2 °F 10.1 °F 15.8 °F 80% 30.18 in 2.5 mi NE 10.4 mph - 0.00 in Snow Light Snow
5:22 AM 21.2 °F 10.9 °F 15.8 °F 80% 30.17 in 1.8 mi ENE 9.2 mph - 0.00 in Snow Light Snow
5:48 AM 21.2 °F 12.6 °F 15.8 °F 80% 30.17 in 3.0 mi NE 6.9 mph - 0.00 in Snow Light Snow
5:53 AM 21.9 °F 13.4 °F 16.0 °F 78% 30.19 in 4.0 mi NE 6.9 mph - 0.00 in Snow Light Snow
6:08 AM 21.2 °F 12.6 °F 15.8 °F 80% 30.16 in 2.0 mi NE 6.9 mph - 0.00 in Snow Light Snow
6:19 AM 21.2 °F 12.6 °F 15.8 °F 80% 30.16 in 7.0 mi ENE 6.9 mph - 0.00 in   Overcast
6:34 AM 21.2 °F 10.1 °F 15.8 °F 80% 30.16 in 1.8 mi NE 10.4 mph - 0.00 in Snow Light Snow
6:44 AM 21.2 °F 10.1 °F 15.8 °F 80% 30.16 in 2.0 mi NE 10.4 mph 16.1 mph 0.00 in Snow Light Snow
6:49 AM 21.2 °F 10.9 °F 15.8 °F 80% 30.16 in 3.0 mi NE 9.2 mph 16.1 mph 0.00 in Snow Light Snow
6:53 AM 21.9 °F 13.4 °F 15.1 °F 75% 30.18 in 3.0 mi NE 6.9 mph 16.1 mph 0.00 in Snow Light Snow
7:53 AM 21.0 °F 9.3 °F 14.0 °F 74% 30.16 in 8.0 mi ENE 11.5 mph - 0.01 in   Overcast
8:29 AM 21.2 °F 11.7 °F 15.8 °F 80% 30.14 in 1.8 mi ENE 8.1 mph 17.3 mph 0.00 in Snow Light Snow
8:46 AM 21.2 °F 10.1 °F 15.8 °F 80% 30.14 in 2.5 mi ENE 10.4 mph 19.6 mph 0.00 in Snow Light Snow
8:53 AM 21.0 °F 9.3 °F 15.1 °F 78% 30.15 in 2.0 mi NE 11.5 mph 20.7 mph 0.00 in Snow Light Snow
8:56 AM 21.2 °F 11.7 °F 15.8 °F 80% 30.14 in 1.0 mi ENE 8.1 mph 20.7 mph 0.00 in Snow Light Snow
9:03 AM 21.2 °F 10.1 °F 15.8 °F 80% 30.14 in 0.5 mi NE 10.4 mph - 0.00 in Snow Snow
9:08 AM 21.2 °F 9.5 °F 15.8 °F 80% 30.13 in 1.2 mi NE 11.5 mph - 0.00 in Snow Light Snow
9:17 AM 21.2 °F 10.1 °F 15.8 °F 80% 30.13 in 2.0 mi NE 10.4 mph - 0.00 in Snow Light Snow
9:24 AM 21.2 °F 10.9 °F 15.8 °F 80% 30.13 in 1.8 mi NE 9.2 mph - 0.00 in Snow Light Snow
9:53 AM 21.0 °F 9.9 °F 15.1 °F 78% 30.13 in 2.5 mi NE 10.4 mph - 0.00 in Snow Light Snow
10:03 AM 21.2 °F 8.3 °F 14.0 °F 74% 30.11 in 6.0 mi NE 13.8 mph 19.6 mph 0.00 in   Haze
10:53 AM 21.0 °F 9.9 °F 12.9 °F 71% 30.09 in 9.0 mi NE 10.4 mph 19.6 mph 0.00 in   Overcast
11:13 AM 19.4 °F 7.9 °F 12.2 °F 74% 30.06 in 1.8 mi ENE 10.4 mph 23.0 mph 0.00 in Snow Light Snow
11:31 AM 19.4 °F 6.6 °F 12.2 °F 74% 30.03 in 3.0 mi NE 12.7 mph 19.6 mph 0.00 in Snow Light Snow
11:53 AM 19.9 °F 8.6 °F 12.9 °F 74% 30.04 in 2.0 mi NE 10.4 mph 19.6 mph 0.00 in Snow Light Snow
12:00 PM 19.4 °F 7.2 °F 12.2 °F 74% 30.01 in 1.2 mi NE 11.5 mph - 0.00 in Snow Light Snow
12:28 PM 19.4 °F 10.4 °F 12.2 °F 74% 30.00 in 3.0 mi NE 6.9 mph - 0.00 in   Haze
12:53 PM 19.9 °F 10.1 °F 12.9 °F 74% 29.99 in 4.0 mi NE 8.1 mph - 0.00 in   Overcast
1:53 PM 19.9 °F 11.1 °F 12.9 °F 74% 29.96 in 9.0 mi NE 6.9 mph 18.4 mph 0.00 in   Overcast
2:53 PM 19.0 °F 8.2 °F 12.0 °F 74% 29.92 in 4.0 mi NE 9.2 mph 18.4 mph 0.00 in   Haze
3:53 PM 19.0 °F 7.5 °F 12.0 °F 74% 29.91 in 9.0 mi NE 10.4 mph 19.6 mph N/A   Overcast
4:53 PM 19.0 °F 5.6 °F 10.9 °F 71% 29.87 in 10.0 mi NE 13.8 mph 21.9 mph N/A   Overcast
5:53 PM 19.0 °F 6.8 °F 10.9 °F 71% 29.86 in 10.0 mi NE 11.5 mph 20.7 mph N/A   Overcast
6:50 PM 17.6 °F 4.3 °F 10.4 °F 73% 29.82 in 1.8 mi NE 12.7 mph 16.1 mph 0.00 in Snow Light Snow
6:53 PM 17.1 °F 4.3 °F 10.0 °F 74% 29.85 in 1.2 mi NE 11.5 mph 19.6 mph 0.00 in Snow Light Snow
6:59 PM 17.6 °F 6.4 °F 10.4 °F 73% 29.83 in 0.8 mi NE 9.2 mph 19.6 mph 0.00 in Snow Light Snow
7:53 PM 16.0 °F 2.3 °F 10.0 °F 77% 29.82 in 1.0 mi NE 12.7 mph 19.6 mph 0.01 in Snow Light Snow
8:03 PM 15.8 °F 0.3 °F 10.4 °F 79% 29.79 in 1.2 mi NE 16.1 mph 24.2 mph 0.00 in Snow Light Snow
8:09 PM 15.8 °F 2.1 °F 8.6 °F 73% 29.79 in 1.0 mi NE 12.7 mph 24.2 mph 0.00 in Snow Light Snow
8:24 PM 15.8 °F 2.7 °F 10.4 °F 79% 29.77 in 0.8 mi NE 11.5 mph 17.3 mph 0.01 in Snow Light Snow
8:53 PM 15.1 °F 1.8 °F 9.0 °F 77% 29.79 in 0.8 mi NE 11.5 mph 20.7 mph 0.01 in Snow Light Snow
9:53 PM 14.0 °F 3.9 °F 8.1 °F 77% 29.78 in 0.8 mi NNE 6.9 mph - 0.01 in Snow Light Snow
10:48 PM 12.2 °F -0.2 °F 6.8 °F 79% 29.74 in 0.5 mi NE 9.2 mph 17.3 mph 0.01 in Snow Snow
10:53 PM 12.0 °F -2.0 °F 6.1 °F 77% 29.75 in 0.5 mi NE 11.5 mph 17.3 mph 0.02 in Snow Snow
11:43 PM 12.2 °F -3.1 °F 6.8 °F 79% 29.72 in 0.8 mi NNE 13.8 mph 19.6 mph 0.00 in Snow Light Snow
11:53 PM 12.0 °F -0.4 °F 5.0 °F 73% 29.74 in 1.0 mi NNE 9.2 mph 18.4 mph 0.00 in Snow Light Snow